Montgomery, AL

5:02 AM CST on January 21, 2017 (GMT -0600)
Maxwell AFB

Weather History for KMXF - May, 2013

Change the Weather History Date:

Sunday, May 19, 2013

  Actual Average Record
Temperature  
Mean Temperature 76 °F -  
Max Temperature 87 °F 84 °F 93 °F (1998)
Min Temperature 66 °F 63 °F 46 °F (2002)
Cooling Degree Days 11    
Growing Degree Days 26 (Base 50)    
Moisture  
Dew Point 67 °F    
Average Humidity 78    
Maximum Humidity 100    
Minimum Humidity 54    
Precipitation  
Precipitation 0.00 in - - ()
Sea Level Pressure  
Sea Level Pressure 30.05 in    
Wind  
Wind Speed 4 mph (South)    
Max Wind Speed 13 mph    
Max Gust Speed -    
Visibility 9 miles    
Events      
Averages and records for this station are not official NWS values.
T = Trace of Precipitation, MM = Missing Value Source: NWS Daily Summary

Daily Weather History Graph

Daily Weather History Graph

Search for Another Location

Airport or City:

Trip Planner

Search our weather history database for the weather conditions in past years. The results will help you decide how hot, cold, wet, or windy it might be!

Date:

Astronomy

May. 19, 2013 Rise Set
Actual Time 5:44 AM CDT 7:39 PM CDT
Civil Twilight 5:17 AM CDT 8:06 PM CDT
Nautical Twilight 4:44 AM CDT 8:39 PM CDT
Astronomical Twilight 4:09 AM CDT 9:15 PM CDT
Moon 2:02 PM CDT (5/19) 1:47 AM CDT (5/19)
Length of Visible Light 14h 49m
Length of Day
13h 54m
Waxing Gibbous, 65% of the Moon is Illuminated
May 19
Waxing Gibbous
May 24
Full
May 31
Last Quarter
Jun 8
New
Jun 16
First Quarter

Hourly Weather History & Observations

Time (CDT) Temp. Heat Index Dew Point Humidity Pressure Visibility Wind Dir Wind Speed Gust Speed Precip Events Conditions
12:58 AM 74.3 °F - 69.6 °F 85% 30.04 in 10.0 mi Variable 2.3 mph - N/A   Overcast
1:58 AM 72.7 °F - 68.9 °F 88% 30.02 in 10.0 mi SSW 3.5 mph - N/A   Partly Cloudy
2:58 AM 70.2 °F - 67.6 °F 92% 30.02 in 10.0 mi SSE 2.3 mph - N/A   Partly Cloudy
3:58 AM 69.4 °F - 67.6 °F 94% 30.03 in 10.0 mi Calm Calm - N/A   Clear
4:43 AM 68.0 °F - 66.2 °F 94% 30.02 in 2.5 mi South 2.3 mph - N/A   Clear
4:48 AM 68.0 °F - 66.2 °F 94% 30.02 in 1.8 mi South 3.5 mph - N/A   Clear
4:53 AM 68.0 °F - 66.2 °F 94% 30.02 in 2.5 mi SSW 2.3 mph - N/A   Clear
4:58 AM 66.7 °F - 65.7 °F 96% 30.03 in 5.0 mi SSW 2.3 mph - N/A   Clear
5:33 AM 66.2 °F - 66.2 °F 100% 30.03 in 6.0 mi SSE 4.6 mph - N/A   Mostly Cloudy
5:58 AM 68.9 °F - 68.4 °F 98% 30.06 in 9.0 mi South 2.3 mph - N/A   Overcast
6:43 AM 69.8 °F - 68.0 °F 94% 30.07 in 9.0 mi SSW 4.6 mph - N/A   Overcast
6:48 AM 69.8 °F - 68.0 °F 94% 30.07 in 10.0 mi Variable 3.5 mph - N/A   Overcast
6:58 AM 70.0 °F - 68.5 °F 95% 30.09 in 10.0 mi South 4.6 mph - N/A   Overcast
7:58 AM 71.4 °F - 67.5 °F 87% 30.09 in 10.0 mi SSW 4.6 mph - N/A   Overcast
8:58 AM 73.9 °F - 67.1 °F 79% 30.08 in 10.0 mi Variable 4.6 mph - N/A   Overcast
9:33 AM 77.0 °F - 68.0 °F 74% 30.08 in 10.0 mi SSW 6.9 mph - N/A   Overcast
9:58 AM 77.7 °F - 67.8 °F 71% 30.08 in 10.0 mi South 6.9 mph - N/A   Mostly Cloudy
10:13 AM 77.0 °F - 68.0 °F 74% 30.07 in 10.0 mi SSW 5.8 mph - N/A   Scattered Clouds
10:58 AM 79.5 °F - 67.5 °F 66% 30.07 in 10.0 mi Variable 3.5 mph - N/A   Clear
11:58 AM 81.9 °F 84.6 °F 67.8 °F 62% 30.06 in 10.0 mi Variable 5.8 mph - N/A   Clear
12:58 PM 83.3 °F 86.2 °F 67.6 °F 59% 30.05 in 10.0 mi West 5.8 mph - N/A   Partly Cloudy
1:58 PM 83.8 °F 86.5 °F 67.1 °F 57% 30.06 in 10.0 mi SW 5.8 mph - N/A   Partly Cloudy
2:58 PM 85.5 °F 88.5 °F 67.6 °F 55% 30.05 in 10.0 mi NE 2.3 mph - N/A   Partly Cloudy
3:58 PM 86.5 °F 90.0 °F 68.0 °F 54% 30.04 in 10.0 mi Variable 1.2 mph - N/A   Overcast
4:58 PM 85.5 °F 88.5 °F 67.8 °F 55% 30.01 in 10.0 mi South 9.2 mph - N/A   Partly Cloudy
5:58 PM 84.7 °F 87.6 °F 67.5 °F 56% 30.01 in 10.0 mi SSW 5.8 mph - N/A   Partly Cloudy
6:58 PM 83.3 °F 85.7 °F 66.4 °F 57% 30.02 in 10.0 mi Calm Calm - N/A   Clear
7:58 PM 77.2 °F - 68.2 °F 74% 30.03 in 10.0 mi North 2.3 mph - N/A   Clear
8:58 PM 74.8 °F - 68.0 °F 79% 30.06 in 10.0 mi NNE 3.5 mph - N/A   Clear
9:58 PM 75.2 °F - 65.8 °F 73% 30.08 in 10.0 mi East 8.1 mph - N/A   Clear
10:58 PM 72.0 °F - 63.5 °F 75% 30.04 in 10.0 mi South 12.7 mph - N/A   Clear
11:58 PM 70.7 °F - 63.3 °F 77% 30.03 in 10.0 mi ESE 5.8 mph - N/A   Clear